[[{"header":{"parameterUnit":"m.s-1","parameterCategory":1,"la1":30.2991,"la2":30.254,"lo1":-89.0895,"lo2":-89.0444,"dy":0.0017,"dx":0.0017,"nx":28,"ny":28,"refTime":"2023-09-12T09:00:00:Z","depth":0,"parameterNumber":2,"parameterNumberName":"U-component_of_WINDS"},"data":[0,0,0,0,0,0,0,0,0,0,0,0,0,0,0,0,0,0,0,0,0,0,0,0,0,0,0,0,0,0,0,0,0,0,0,0,0,0,0,0,0,0,0,0,0,0,0,0,0,0,0,0,0,0,0,0,0,0,1.0505,1.0506,0,1.0557,1.0557,1.0558,1.0548,1.0548,1.0547,1.0546,1.0597,1.06,1.0602,0,0,0,0,0,0,0,0,0,0,0,0,0,1.0397,1.0399,1.0505,1.0506,1.0507,1.0557,1.0557,1.0558,1.0549,1.0548,1.0546,1.0545,1.0597,1.0599,1.0602,0,0,0,0,0,0,0,0,0,0,0,0,0,1.0446,1.04,1.0505,1.0508,1.0509,1.0556,1.0557,1.0558,1.0549,1.0547,1.0546,1.0545,1.0596,1.0599,1.0602,1.065,0,0,1.0612,1.0614,0,0,0,0,0,0,0,0,1.0443,1.045,1.0507,1.0508,1.0509,1.0545,1.0538,1.0589,1.0549,1.0534,1.0546,1.0544,1.0581,1.0585,1.0598,1.0652,1.0655,1.0613,1.0615,1.0616,1.0617,0,0,0,0,0,0,0,1.044,1.0448,1.0526,1.0508,1.0509,1.0506,1.0511,1.0548,1.0564,1.0535,1.0534,1.0541,1.0581,1.0595,1.0599,1.0655,1.0613,1.0616,1.0618,1.0619,1.075,1.0751,0,0,0,0,0,0,1.0436,1.0445,1.0524,1.0527,1.0472,1.0509,1.0515,1.0535,1.0564,1.0567,1.0542,1.054,1.059,1.0595,1.0601,1.0657,1.0616,1.0619,1.0621,1.0748,1.075,1.0752,0,0,0,0,0,0,1.0434,1.0443,1.0522,1.0486,1.0496,1.0512,1.0534,1.0536,1.055,1.0569,1.0572,1.0553,1.0589,1.0596,1.0638,1.0659,1.0621,1.0624,1.0747,1.0749,1.0751,1.0772,0,0,0,0,0,0,1.043,1.0442,1.0461,1.0486,1.0498,1.0558,1.0536,1.0538,1.0556,1.0554,1.058,1.0583,1.0588,1.0633,1.0641,1.0663,1.0626,1.0745,1.0748,1.075,1.0769,1.0774,1.0779,0,0,0,0,0,1.0427,1.0465,1.0462,1.0472,1.0522,1.056,1.0566,1.0572,1.0558,1.0576,1.0588,1.0582,1.0656,1.0637,1.0646,1.067,1.0743,1.0747,1.075,1.0767,1.0773,1.0779,0,0,0,0,0,0,1.0441,1.0468,1.0465,1.0513,1.0534,1.0558,1.0582,1.0579,1.0604,1.0601,1.0607,1.0613,1.0654,1.0666,1.0645,1.0717,1.0697,1.0703,1.0707,1.0713,1.0718,1.0714,1.0629,0,0,0,0,0,1.045,1.048,1.0501,1.0541,1.0552,1.0565,1.0582,1.0584,1.0606,1.0615,1.063,1.0651,1.0679,1.0697,1.0723,1.0771,1.0776,1.0792,1.0796,1.08,1.0804,1.0829,1.0836,1.0763,1.0763,1.0763,0,0,1.0469,1.0487,1.0505,1.0545,1.0561,1.059,1.0573,1.0605,1.0626,1.062,1.0659,1.0671,1.0695,1.0739,1.0759,1.075,1.0826,1.0805,1.0807,1.081,1.0833,1.084,1.0846,1.0765,1.0765,1.0764,0,0,1.0517,1.0535,1.0569,1.0586,1.0611,1.062,1.0628,1.0652,1.066,1.07,1.0695,1.0721,1.0769,1.0785,1.08,1.0854,1.0848,1.0862,1.0887,1.0911,1.0916,1.0922,1.0939,1.0946,1.0867,1.0867,1.0867,0,1.0537,1.0581,1.0587,1.0619,1.0636,1.0632,1.0666,1.0682,1.0715,1.0726,1.0716,1.0775,1.0791,1.0838,1.0851,1.0864,1.0872,1.0859,1.0915,1.092,1.0925,1.0942,1.0949,1.0868,1.0868,1.0868,1.0868,0,1.0603,1.0634,1.0659,1.069,1.071,1.0743,1.0753,1.0772,1.0773,1.0782,1.0822,1.0841,1.0871,1.0882,1.0884,1.093,1.0923,1.0914,1.0895,1.0934,1.0949,1.0956,1.087,1.0869,1.0869,1.0869,0,0,1.0662,1.0696,1.0705,1.0719,1.0746,1.077,1.0802,1.0831,1.0847,1.0869,1.0896,1.0936,1.0927,1.0944,1.0947,1.0968,1.1007,1.0956,1.0957,1.0964,1.1058,1.1063,1.1071,1.1005,1.1006,1.1007,1.1055,0,1.0712,1.077,1.0776,1.0827,1.0854,1.085,1.0878,1.0898,1.0907,1.0931,1.0941,1.0969,1.0957,1.0966,1.0987,1.0998,1.1026,1.0995,1.1028,1.1029,1.1021,1.1079,1.1086,1.113,1.1062,1.1063,1.1063,0,1.0778,1.0802,1.0856,1.0878,1.089,1.0915,1.0942,1.0965,1.0987,1.0992,1.101,1.101,1.1042,1.1022,1.1066,1.1045,1.1059,1.1066,1.1068,1.107,1.1048,1.1082,1.1145,1.1151,1.1074,1.1073,1.1072,0,1.0814,1.086,1.0898,1.091,1.0937,1.0955,1.0967,1.0987,1.1003,1.1027,1.1037,1.1064,1.1078,1.1098,1.1105,1.109,1.1148,1.1129,1.1152,1.1152,1.1163,1.1162,1.1228,1.1175,1.1174,1.1174,1.1174,0,1.0868,1.0901,1.0914,1.0937,1.0973,1.0979,1.1015,1.1026,1.1044,1.1068,1.1067,1.109,1.1097,1.1121,1.1127,1.1161,1.1168,1.1172,1.1173,1.1172,1.1171,1.118,1.1177,1.1176,1.1176,1.1175,1.1175,0,1.0914,1.0924,1.0965,1.0987,1.0994,1.1019,1.1038,1.106,1.1068,1.1099,1.1107,1.1121,1.1149,1.1157,1.1191,1.1195,1.1235,1.1234,1.1228,1.1227,1.1249,1.1247,1.1322,1.1332,1.1273,1.1274,1.1274,0,1.0947,1.0972,1.0997,1.1013,1.1026,1.1053,1.107,1.1077,1.1094,1.112,1.1138,1.1166,1.1188,1.1233,1.1246,1.1271,1.127,1.1294,1.1273,1.1271,1.1268,1.1266,1.1268,1.1298,1.1299,1.1299,1.13,0,1.1004,1.1008,1.1033,1.1059,1.108,1.1101,1.1121,1.1134,1.1144,1.1163,1.1192,1.121,1.1244,1.1271,1.1297,1.1308,1.1305,1.1306,1.1313,1.1311,1.1306,1.1307,1.1237,1.1304,1.1304,1.1303,1.1303,1.1303,1.1044,1.1065,1.1086,1.1113,1.1129,1.1148,1.1169,1.1181,1.1205,1.1233,1.1236,1.1266,1.1286,1.132,1.1333,1.1357,1.1349,1.1359,1.1361,1.1363,1.1364,1.1303,1.1362,1.1361,1.1361,1.1361,1.1361,0,1.11,1.1113,1.1138,1.1166,1.1188,1.1183,1.1205,1.1223,1.125,1.1269,1.1291,1.1323,1.1349,1.1364,1.1389,1.1405,1.1404,1.1412,1.141,1.1412,1.137,1.1361,1.1412,1.1412,1.1412,1.1412,1.1412,1.1412,1.1131,1.1167,1.1173,1.1216,1.1229,1.1259,1.1272,1.1289,1.1304,1.134,1.1362,1.1371,1.1388,1.1414,1.1438,1.1441,1.145,1.1458,1.146,1.1421,1.1415,1.141,1.1402,1.146,1.146,1.15,1.1501,1.1501]},{"header":{"parameterUnit":"m.s-1","parameterCategory":1,"la1":30.2991,"la2":30.254,"lo1":-89.0895,"lo2":-89.0444,"dy":0.0017,"dx":0.0017,"nx":28,"ny":28,"refTime":"2023-09-12T09:00:00:Z","depth":0,"parameterNumber":3,"parameterNumberName":"V-component_of_WINDS"},"data":[0,0,0,0,0,0,0,0,0,0,0,0,0,0,0,0,0,0,0,0,0,0,0,0,0,0,0,0,0,0,0,0,0,0,0,0,0,0,0,0,0,0,0,0,0,0,0,0,0,0,0,0,0,0,0,0,0,0,3.9376,3.9375,0,3.9339,3.9338,3.9338,3.9281,3.928,3.9279,3.9278,3.9239,3.9239,3.9239,0,0,0,0,0,0,0,0,0,0,0,0,0,3.9397,3.9397,3.9376,3.9375,3.9375,3.9339,3.9338,3.9338,3.9281,3.928,3.9279,3.9277,3.9239,3.9239,3.9239,0,0,0,0,0,0,0,0,0,0,0,0,0,3.9377,3.9397,3.9376,3.9342,3.9339,3.9339,3.9338,3.9338,3.9281,3.928,3.9278,3.9277,3.9239,3.9239,3.9239,3.9269,0,0,3.9239,3.9239,0,0,0,0,0,0,0,0,3.9378,3.9376,3.9348,3.9344,3.9341,3.9313,3.9331,3.9315,3.9282,3.9303,3.9278,3.9276,3.9265,3.9263,3.9259,3.9267,3.9265,3.9239,3.9239,3.9239,3.9239,0,0,0,0,0,0,0,3.9379,3.9377,3.9361,3.9347,3.9343,3.9329,3.9324,3.9328,3.9293,3.9301,3.9297,3.9293,3.9263,3.9259,3.9258,3.9265,3.9239,3.9239,3.9239,3.9239,3.9295,3.9296,0,0,0,0,0,0,3.9386,3.9379,3.9362,3.936,3.9356,3.933,3.9325,3.9323,3.9293,3.9287,3.9295,3.9291,3.926,3.9258,3.9256,3.9288,3.9239,3.9239,3.9239,3.9293,3.9295,3.9297,0,0,0,0,0,0,3.9386,3.9385,3.9364,3.9368,3.9364,3.9331,3.933,3.9323,3.932,3.9288,3.9281,3.9298,3.9259,3.9256,3.9266,3.9286,3.9239,3.9238,3.9291,3.9294,3.9296,3.9353,0,0,0,0,0,0,3.9387,3.9385,3.9396,3.9369,3.9364,3.9374,3.9331,3.9324,3.932,3.9314,3.9289,3.9283,3.9258,3.9267,3.9266,3.9285,3.9238,3.9289,3.9292,3.9295,3.9349,3.9357,3.9364,0,0,0,0,0,3.9388,3.9414,3.9397,3.9395,3.9377,3.9376,3.9373,3.9343,3.9322,3.9332,3.9312,3.9284,3.9284,3.9268,3.9267,3.9286,3.9288,3.9292,3.9295,3.9346,3.9355,3.9363,0,0,0,0,0,0,3.9444,3.941,3.9391,3.9408,3.9395,3.9366,3.9378,3.9354,3.9347,3.9342,3.9306,3.93,3.9315,3.9301,3.9284,3.9313,3.9282,3.9285,3.9321,3.933,3.9337,3.9339,3.9238,0,0,0,0,0,3.9459,3.9461,3.943,3.9449,3.9443,3.9412,3.941,3.9389,3.9374,3.9368,3.9348,3.9334,3.9331,3.933,3.9325,3.9347,3.934,3.936,3.9367,3.9374,3.9377,3.9386,3.9394,3.9308,3.9308,3.9308,0,0,3.9489,3.947,3.9473,3.9459,3.9447,3.9449,3.9408,3.9412,3.9413,3.9368,3.9376,3.9361,3.9344,3.9359,3.9365,3.9349,3.9399,3.9378,3.9383,3.9383,3.9391,3.9399,3.9406,3.9311,3.931,3.931,0,0,3.9544,3.953,3.9544,3.9532,3.9514,3.9493,3.9497,3.9471,3.9459,3.9467,3.9433,3.9434,3.943,3.9418,3.9412,3.9463,3.9437,3.9463,3.95,3.9511,3.9517,3.9523,3.954,3.9547,3.9466,3.9467,3.9467,0,3.9583,3.9585,3.9554,3.956,3.9555,3.9515,3.9528,3.9518,3.9499,3.9496,3.9478,3.9472,3.9457,3.9469,3.9482,3.9479,3.9481,3.9465,3.9519,3.9524,3.9529,3.9545,3.9552,3.947,3.9469,3.9469,3.9469,0,3.9634,3.9636,3.9649,3.9632,3.9628,3.9638,3.9608,3.9608,3.9587,3.9568,3.9576,3.9557,3.9548,3.955,3.9529,3.9559,3.9549,3.9526,3.9493,3.9541,3.9556,3.9562,3.9474,3.9473,3.9472,3.9471,0,0,3.9722,3.9688,3.9693,3.9685,3.9662,3.9663,3.9671,3.9662,3.9662,3.9651,3.9656,3.9654,3.9632,3.9625,3.9603,3.9612,3.9653,3.9587,3.9586,3.9599,3.9683,3.97,3.9708,3.9636,3.9637,3.9638,3.9684,0,3.9772,3.9783,3.9756,3.9774,3.9775,3.9738,3.9744,3.9731,3.9714,3.9712,3.9693,3.9692,3.9664,3.9659,3.9666,3.9646,3.9669,3.9643,3.9639,3.964,3.9644,3.9716,3.9733,3.9778,3.969,3.9691,3.9692,0,3.9831,3.9823,3.9841,3.9817,3.9817,3.9823,3.9813,3.9812,3.9796,3.9783,3.9775,3.975,3.9755,3.9726,3.9732,3.9715,3.9712,3.9702,3.9703,3.9701,3.9668,3.9714,3.9792,3.9798,3.97,3.97,3.9699,0,3.9892,3.9886,3.9896,3.989,3.9863,3.9868,3.9857,3.9839,3.9836,3.9827,3.9824,3.9816,3.9811,3.9805,3.9778,3.9759,3.9788,3.9755,3.9776,3.9777,3.9783,3.9782,3.986,3.9783,3.9783,3.9783,3.9783,0,3.995,3.9962,3.9923,3.9929,3.9942,3.991,3.9924,3.9909,3.9894,3.9896,3.9863,3.9866,3.983,3.9829,3.9808,3.9816,3.9815,3.9804,3.9797,3.9806,3.9807,3.9802,3.9798,3.9785,3.9784,3.9784,3.9784,0,4.002,3.9994,4.0003,3.9976,3.997,3.998,3.9957,3.9962,3.9943,3.9946,3.9945,3.9915,3.9912,3.9885,3.9875,3.9861,3.9877,3.9865,3.9882,3.9878,3.99,3.9898,3.9976,3.9985,3.9904,3.9905,3.9905,0,4.0058,4.0067,4.0041,4.004,4.0031,4.003,4.0026,3.9995,3.9993,3.9975,3.9982,3.9976,3.9969,3.9966,3.9943,3.9936,3.9923,3.9951,3.9922,3.993,3.9922,3.9921,3.9922,3.9957,3.9958,3.9959,3.996,0,4.0127,4.0114,4.011,4.0102,4.0098,4.009,4.008,4.0081,4.0047,4.0046,4.0042,4.0037,4.0028,4.0022,4.0011,3.9999,3.9973,3.997,3.9974,3.9981,3.999,3.9985,3.9898,3.9967,3.9967,3.9966,3.9966,3.9965,4.0181,4.0187,4.017,4.0167,4.0156,4.0147,4.015,4.0132,4.0128,4.0118,4.01,4.0099,4.0083,4.0065,4.0055,4.0053,4.0038,4.0045,4.0046,4.0048,4.0052,3.9992,4.0051,4.0051,4.0051,4.0051,4.005,0,4.0248,4.0236,4.0233,4.022,4.0217,4.0194,4.0182,4.0181,4.018,4.0167,4.0162,4.0158,4.0152,4.0129,4.0121,4.0124,4.0112,4.0123,4.0122,4.0119,4.0066,4.0063,4.0133,4.0133,4.0133,4.0133,4.0133,4.0132,4.0283,4.0291,4.0276,4.0279,4.0266,4.0265,4.026,4.0251,4.0241,4.0237,4.0233,4.0218,4.0201,4.0191,4.0185,4.0178,4.0176,4.0191,4.018,4.0131,4.0123,4.0115,4.0112,4.0191,4.0191,4.0233,4.0233,4.0234]}]]